STARLINK-36319, 67970

Orbit data source: Space-Track

STARLINK-36319, 67970 is a payload satellite owned by SpaceX/Seattle (US) in SSO that was launched on Wed, 25 Feb 2026 UTC via an FALCON 9 launch vehicle from the Air Force Western Test Range (AFWTR). Payload-class satellites include a variety of spacecraft equipped with specific instruments for various scientific and technological missions. These include communications satellites like Starlink; space stations such as the ISS; scientific satellites like the Hubble; Earth observation satellites from companies like Planet Labs, Umbra, and HawkEye 360; GPS; miniature CubeSats for education and research; and military/defense satellites.

Loading next visibility...
Identifier
67970, 2026-038K
Orbit
SSO
Country
Flag of USUS
Related business
Manufacturer
SpaceX/Seattle
Mission
Operational Commercial Communications
Bus & Motor
STARLINK V2MO, Unknown motor
Mass
575 kg wet, ~530 kg dry
Launch date (UTC)
2026-02-25 (4 months ago)
Launch vehicle
FALCON 9
Launch site
Air Force Western Test Range (AFWTR)
Object type
Payload
Rocket body
Debris
Shape & HBR
Box + 2 Pan, 17.7 m
Radar Cross Section
36.964 m², Large (>1 m²)

Expand to show TLE details & history
Last TLE update: 13 hours ago

TLE from 13 hours ago
0 STARLINK-36319
1 67970U 26038K   26171.30273532  .00014015  00000-0  43553-3 0  9994
2 67970  97.2859 180.9414 0000574  72.5641 287.5664 15.33452933 18969
Epoch: 2026-06-20T07:15Z
TLE epoch observation values (Epoch: 2026-06-20T07:15:56.331Z)
Latitude
-0.00008°
Longitude
163.4374°
Altitude
468.513 km
Speed
7.632 km/s
True Right ascension
12h 03m 45s
True Declination
0° 00' 00"
Sunlit
Object was in daylight at epoch
Visualization orbit readout
Latitude
Unknown
Longitude
Unknown
Altitude
Unknown
Speed
Unknown
Apparent Right ascension
Unknown
Apparent Declination
Unknown
Sunlit
N/A
Visualization observer readout
Local Sidereal Time
07:13:16
Azimuth
Unknown
Elevation
Unknown
Doppler factor
Unknown
Orbital elements
Apogee altitude
462.855 km
Perigee altitude
462.07 km
Semi-major axis
6,840.599 km
Eccentricity
0.00006
Inclination
97.2859°
RAAN
180.9414°
Arg. of periapsis
72.5641°
True anomaly
287.56013°
Mean anomaly
287.5664°
Eccentric anomaly
287.56326°
Mean motion
3.83621 °/min
Orbital period
93.84 mins
BSTAR
0.00043553
Loading maneuver chart data...
Computing Atmospheric mass density...
Loading historical data...
Loading historical data...
Loading historical data...
Loading historical data...
Loading historical data...
Loading historical data...
Loading historical data...

Documentation

Showing up to 5 results
|